Year,Month,Day,Hour,Minute,Value (Times are PST for temperature in C)
2015,05,20,00,00,13.30
2015,05,20,00,01,13.30
2015,05,20,00,02,13.30
2015,05,20,00,03,13.30
2015,05,20,00,04,13.30
2015,05,20,00,05,13.30
2015,05,20,00,06,13.30
2015,05,20,00,07,13.30
2015,05,20,00,08,13.30
2015,05,20,00,09,13.30
2015,05,20,00,10,13.30
2015,05,20,00,11,13.30
2015,05,20,00,12,13.30
2015,05,20,00,13,13.30
2015,05,20,00,14,13.30
2015,05,20,00,15,13.30
2015,05,20,00,16,13.30
2015,05,20,00,17,13.30
2015,05,20,00,18,13.20
2015,05,20,00,19,13.20
2015,05,20,00,20,13.20
2015,05,20,00,21,13.20
2015,05,20,00,22,13.20
2015,05,20,00,23,13.10
2015,05,20,00,24,13.10
2015,05,20,00,25,13.10
2015,05,20,00,26,13.10
2015,05,20,00,27,13.00
2015,05,20,00,28,13.00
2015,05,20,00,29,13.00
2015,05,20,00,30,13.00
2015,05,20,00,31,13.00
2015,05,20,00,32,12.90
2015,05,20,00,33,12.90
2015,05,20,00,34,12.90
2015,05,20,00,35,12.80
2015,05,20,00,36,12.80
2015,05,20,00,37,12.80
2015,05,20,00,38,12.80
2015,05,20,00,39,12.80
2015,05,20,00,40,12.70
2015,05,20,00,41,12.70
2015,05,20,00,42,12.70
2015,05,20,00,43,12.60
2015,05,20,00,44,12.60
2015,05,20,00,45,12.60
2015,05,20,00,46,12.60
2015,05,20,00,47,12.60
2015,05,20,00,48,12.50
2015,05,20,00,49,12.50
2015,05,20,00,50,12.50
2015,05,20,00,51,12.50
2015,05,20,00,52,12.40
2015,05,20,00,53,12.40
2015,05,20,00,54,12.40
2015,05,20,00,55,12.40
2015,05,20,00,56,12.40
2015,05,20,00,57,12.40
2015,05,20,00,58,12.30
2015,05,20,00,59,12.30
2015,05,20,01,00,12.30
2015,05,20,01,01,12.30
2015,05,20,01,02,12.30
2015,05,20,01,03,12.30
2015,05,20,01,04,12.30
2015,05,20,01,05,12.30
2015,05,20,01,06,12.30
2015,05,20,01,07,12.30
2015,05,20,01,08,12.30
2015,05,20,01,09,12.30
2015,05,20,01,10,12.30
2015,05,20,01,11,12.30
2015,05,20,01,12,12.20
2015,05,20,01,13,12.20
2015,05,20,01,14,12.20
2015,05,20,01,15,12.20
2015,05,20,01,16,12.20
2015,05,20,01,17,12.20
2015,05,20,01,18,12.20
2015,05,20,01,19,12.20
2015,05,20,01,20,12.10
2015,05,20,01,21,12.10
2015,05,20,01,22,12.10
2015,05,20,01,23,12.10
2015,05,20,01,24,12.10
2015,05,20,01,25,12.10
2015,05,20,01,26,12.10
2015,05,20,01,27,12.10
2015,05,20,01,28,12.10
2015,05,20,01,29,12.10
2015,05,20,01,30,12.10
2015,05,20,01,31,12.10
2015,05,20,01,32,12.10
2015,05,20,01,33,12.20
2015,05,20,01,34,12.20
2015,05,20,01,35,12.30
2015,05,20,01,36,12.30
2015,05,20,01,37,12.30
2015,05,20,01,38,12.30
2015,05,20,01,39,12.30
2015,05,20,01,40,12.30
2015,05,20,01,41,12.30
2015,05,20,01,42,12.30
2015,05,20,01,43,12.40
2015,05,20,01,44,12.40
2015,05,20,01,45,12.40
2015,05,20,01,46,12.40
2015,05,20,01,47,12.40
2015,05,20,01,48,12.40
2015,05,20,01,49,12.40
2015,05,20,01,50,12.40
2015,05,20,01,51,12.40
2015,05,20,01,52,12.40
2015,05,20,01,53,12.40
2015,05,20,01,54,12.40
2015,05,20,01,55,12.40
2015,05,20,01,56,12.40
2015,05,20,01,57,12.40
2015,05,20,01,58,12.40
2015,05,20,01,59,12.40
2015,05,20,02,00,12.40
2015,05,20,02,01,12.40
2015,05,20,02,02,12.40
2015,05,20,02,03,12.40
2015,05,20,02,04,12.40
2015,05,20,02,05,12.40
2015,05,20,02,06,12.40
2015,05,20,02,07,12.40
2015,05,20,02,08,12.40
2015,05,20,02,09,12.40
2015,05,20,02,10,12.40
2015,05,20,02,11,12.50
2015,05,20,02,12,12.50
2015,05,20,02,13,12.50
2015,05,20,02,14,12.50
2015,05,20,02,15,12.50
2015,05,20,02,16,12.50
2015,05,20,02,17,12.50
2015,05,20,02,18,12.50
2015,05,20,02,19,12.50
2015,05,20,02,20,12.50
2015,05,20,02,21,12.50
2015,05,20,02,22,12.50
2015,05,20,02,23,12.50
2015,05,20,02,24,12.50
2015,05,20,02,25,12.60
2015,05,20,02,26,12.60
2015,05,20,02,27,12.50
2015,05,20,02,28,12.50
2015,05,20,02,29,12.50
2015,05,20,02,30,12.50
2015,05,20,02,31,12.50
2015,05,20,02,32,12.50
2015,05,20,02,33,12.50
2015,05,20,02,34,12.50
2015,05,20,02,35,12.50
2015,05,20,02,36,12.50
2015,05,20,02,37,12.50
2015,05,20,02,38,12.50
2015,05,20,02,39,12.50
2015,05,20,02,40,12.50
2015,05,20,02,41,12.50
2015,05,20,02,42,12.50
2015,05,20,02,43,12.50
2015,05,20,02,44,12.50
2015,05,20,02,45,12.50
2015,05,20,02,46,12.50
2015,05,20,02,47,12.40
2015,05,20,02,48,12.40
2015,05,20,02,49,12.40
2015,05,20,02,50,12.40
2015,05,20,02,51,12.40
2015,05,20,02,52,12.30
2015,05,20,02,53,12.30
2015,05,20,02,54,12.30
2015,05,20,02,55,12.30
2015,05,20,02,56,12.30
2015,05,20,02,57,12.30
2015,05,20,02,58,12.30
2015,05,20,02,59,12.30
2015,05,20,03,00,12.30
2015,05,20,03,01,12.30
2015,05,20,03,02,12.30
2015,05,20,03,03,12.30
2015,05,20,03,04,12.30
2015,05,20,03,05,12.30
2015,05,20,03,06,12.30
2015,05,20,03,07,12.30
2015,05,20,03,08,12.20
2015,05,20,03,09,12.20
2015,05,20,03,10,12.20
2015,05,20,03,11,12.10
2015,05,20,03,12,12.10
2015,05,20,03,13,12.10
2015,05,20,03,14,12.10
2015,05,20,03,15,12.10
2015,05,20,03,16,12.10
2015,05,20,03,17,12.10
2015,05,20,03,18,12.10
2015,05,20,03,19,12.10
2015,05,20,03,20,12.00
2015,05,20,03,21,12.00
2015,05,20,03,22,12.00
2015,05,20,03,23,12.00
2015,05,20,03,24,12.00
2015,05,20,03,25,12.00
2015,05,20,03,26,12.00
2015,05,20,03,27,11.90
2015,05,20,03,28,11.90
2015,05,20,03,29,11.90
2015,05,20,03,30,11.90
2015,05,20,03,31,11.90
2015,05,20,03,32,11.80
2015,05,20,03,33,11.80
2015,05,20,03,34,11.80
2015,05,20,03,35,11.80
2015,05,20,03,36,11.80
2015,05,20,03,37,11.80
2015,05,20,03,38,11.80
2015,05,20,03,39,11.80
2015,05,20,03,40,11.70
2015,05,20,03,41,11.70
2015,05,20,03,42,11.70
2015,05,20,03,43,11.70
2015,05,20,03,44,11.60
2015,05,20,03,45,11.60
2015,05,20,03,46,11.60
2015,05,20,03,47,11.60
2015,05,20,03,48,11.60
2015,05,20,03,49,11.60
2015,05,20,03,50,11.60
2015,05,20,03,51,11.60
2015,05,20,03,52,11.60
2015,05,20,03,53,11.60
2015,05,20,03,54,11.50
2015,05,20,03,55,11.40
2015,05,20,03,56,11.40
2015,05,20,03,57,11.40
2015,05,20,03,58,11.40
2015,05,20,03,59,11.40
2015,05,20,04,00,11.40
2015,05,20,04,01,11.40
2015,05,20,04,02,11.40
2015,05,20,04,03,11.40
2015,05,20,04,04,11.40
2015,05,20,04,05,11.40
2015,05,20,04,06,11.40
2015,05,20,04,07,11.40
2015,05,20,04,08,11.40
2015,05,20,04,09,11.40
2015,05,20,04,10,11.40
2015,05,20,04,11,11.40
2015,05,20,04,12,11.40
2015,05,20,04,13,11.40
2015,05,20,04,14,11.40
2015,05,20,04,15,11.40
2015,05,20,04,16,11.40
2015,05,20,04,17,11.40
2015,05,20,04,18,11.40
2015,05,20,04,19,11.40
2015,05,20,04,20,11.40
2015,05,20,04,21,11.40
2015,05,20,04,22,11.40
2015,05,20,04,23,11.40
2015,05,20,04,24,11.40
2015,05,20,04,25,11.40
2015,05,20,04,26,11.40
2015,05,20,04,27,11.40
2015,05,20,04,28,11.40
2015,05,20,04,29,11.40
2015,05,20,04,30,11.40
2015,05,20,04,31,11.40
2015,05,20,04,32,11.40
2015,05,20,04,33,11.30
2015,05,20,04,34,11.30
2015,05,20,04,35,11.30
2015,05,20,04,36,11.30
2015,05,20,04,37,11.30
2015,05,20,04,38,11.30
2015,05,20,04,39,11.30
2015,05,20,04,40,11.30
2015,05,20,04,41,11.20
2015,05,20,04,42,11.20
2015,05,20,04,43,11.20
2015,05,20,04,44,11.20
2015,05,20,04,45,11.20
2015,05,20,04,46,11.20
2015,05,20,04,47,11.20
2015,05,20,04,48,11.20
2015,05,20,04,49,11.30
2015,05,20,04,50,11.30
2015,05,20,04,51,11.30
2015,05,20,04,52,11.30
2015,05,20,04,53,11.30
2015,05,20,04,54,11.30
2015,05,20,04,55,11.30
2015,05,20,04,56,11.30
2015,05,20,04,57,11.30
2015,05,20,04,58,11.30
2015,05,20,04,59,11.30
2015,05,20,05,00,11.30
2015,05,20,05,01,11.30
2015,05,20,05,02,11.20
2015,05,20,05,03,11.20
2015,05,20,05,04,11.20
2015,05,20,05,05,11.20
2015,05,20,05,06,11.20
2015,05,20,05,07,11.20
2015,05,20,05,08,11.20
2015,05,20,05,09,11.20
2015,05,20,05,10,11.20
2015,05,20,05,11,11.10
2015,05,20,05,12,11.10
2015,05,20,05,13,11.10
2015,05,20,05,14,11.20
2015,05,20,05,15,11.20
2015,05,20,05,16,11.20
2015,05,20,05,17,11.30
2015,05,20,05,18,11.30
2015,05,20,05,19,11.30
2015,05,20,05,20,11.30
2015,05,20,05,21,11.30
2015,05,20,05,22,11.30
2015,05,20,05,23,11.30
2015,05,20,05,24,11.20
2015,05,20,05,25,11.20
2015,05,20,05,26,11.20
2015,05,20,05,27,11.20
2015,05,20,05,28,11.20
2015,05,20,05,29,11.20
2015,05,20,05,30,11.20
2015,05,20,05,31,11.10
2015,05,20,05,32,11.10
2015,05,20,05,33,11.10
2015,05,20,05,34,11.10
2015,05,20,05,35,11.10
2015,05,20,05,36,11.10
2015,05,20,05,37,11.10
2015,05,20,05,38,11.10
2015,05,20,05,39,11.10
2015,05,20,05,40,11.10
2015,05,20,05,41,11.10
2015,05,20,05,42,11.10
2015,05,20,05,43,11.10
2015,05,20,05,44,11.10
2015,05,20,05,45,11.10
2015,05,20,05,46,11.10
2015,05,20,05,47,11.10
2015,05,20,05,48,11.10
2015,05,20,05,49,11.10
2015,05,20,05,50,11.10
2015,05,20,05,51,11.10
2015,05,20,05,52,11.10
2015,05,20,05,53,11.10
2015,05,20,05,54,11.10
2015,05,20,05,55,11.20
2015,05,20,05,56,11.20
2015,05,20,05,57,11.20
2015,05,20,05,58,11.20
2015,05,20,05,59,11.20
2015,05,20,06,00,11.10
2015,05,20,06,01,11.10
2015,05,20,06,02,11.10
2015,05,20,06,03,11.10
2015,05,20,06,04,11.10
2015,05,20,06,05,11.10
2015,05,20,06,06,11.10
2015,05,20,06,07,11.10
2015,05,20,06,08,11.10
2015,05,20,06,09,11.10
2015,05,20,06,10,11.10
2015,05,20,06,11,11.10
2015,05,20,06,12,11.10
2015,05,20,06,13,11.10
2015,05,20,06,14,11.00
2015,05,20,06,15,10.90
2015,05,20,06,16,10.90
2015,05,20,06,17,10.90
2015,05,20,06,18,10.90
2015,05,20,06,19,10.90
2015,05,20,06,20,10.90
2015,05,20,06,21,10.90
2015,05,20,06,22,10.90
2015,05,20,06,23,10.90
2015,05,20,06,24,10.90
2015,05,20,06,25,10.90
2015,05,20,06,26,10.90
2015,05,20,06,27,10.90
2015,05,20,06,28,10.90
2015,05,20,06,29,10.90
2015,05,20,06,30,10.90
2015,05,20,06,31,10.90
2015,05,20,06,32,10.90
2015,05,20,06,33,10.90
2015,05,20,06,34,10.90
2015,05,20,06,35,10.90
2015,05,20,06,36,11.00
2015,05,20,06,37,11.10
2015,05,20,06,38,11.10
2015,05,20,06,39,11.10
2015,05,20,06,40,11.10
2015,05,20,06,41,11.10
2015,05,20,06,42,11.10
2015,05,20,06,43,11.10
2015,05,20,06,44,11.10
2015,05,20,06,45,11.10
2015,05,20,06,46,11.10
2015,05,20,06,47,11.10
2015,05,20,06,48,11.10
2015,05,20,06,49,11.10
2015,05,20,06,50,11.10
2015,05,20,06,51,11.20
2015,05,20,06,52,11.20
2015,05,20,06,53,11.20
2015,05,20,06,54,11.30
2015,05,20,06,55,11.30
2015,05,20,06,56,11.30
2015,05,20,06,57,11.30
2015,05,20,06,58,11.40
2015,05,20,06,59,11.40
2015,05,20,07,00,11.40
2015,05,20,07,01,11.40
2015,05,20,07,02,11.40
2015,05,20,07,03,11.50
2015,05,20,07,04,11.60
2015,05,20,07,05,11.60
2015,05,20,07,06,11.60
2015,05,20,07,07,11.60
2015,05,20,07,08,11.60
2015,05,20,07,09,11.60
2015,05,20,07,10,11.60
2015,05,20,07,11,11.60
2015,05,20,07,12,11.70
2015,05,20,07,13,11.70
2015,05,20,07,14,11.70
2015,05,20,07,15,11.80
2015,05,20,07,16,11.80
2015,05,20,07,17,11.80
2015,05,20,07,18,11.80
2015,05,20,07,19,11.80
2015,05,20,07,20,11.80
2015,05,20,07,21,11.90
2015,05,20,07,22,11.90
2015,05,20,07,23,11.90
2015,05,20,07,24,11.90
2015,05,20,07,25,12.00
2015,05,20,07,26,12.00
2015,05,20,07,27,12.00
2015,05,20,07,28,12.10
2015,05,20,07,29,12.10
2015,05,20,07,30,12.20
2015,05,20,07,31,12.20
2015,05,20,07,32,12.30
2015,05,20,07,33,12.30
2015,05,20,07,34,12.40
2015,05,20,07,35,12.40
2015,05,20,07,36,12.50
2015,05,20,07,37,12.50
2015,05,20,07,38,12.50
2015,05,20,07,39,12.60
2015,05,20,07,40,12.60
2015,05,20,07,41,12.70
2015,05,20,07,42,12.70
2015,05,20,07,43,12.70
2015,05,20,07,44,12.70
2015,05,20,07,45,12.80
2015,05,20,07,46,12.80
2015,05,20,07,47,12.80
2015,05,20,07,48,12.80
2015,05,20,07,49,12.80
2015,05,20,07,50,12.80
2015,05,20,07,51,12.80
2015,05,20,07,52,12.80
2015,05,20,07,53,12.80
2015,05,20,07,54,12.90
2015,05,20,07,55,12.90
2015,05,20,07,56,13.00
2015,05,20,07,57,13.00
2015,05,20,07,58,13.00
2015,05,20,07,59,13.00
2015,05,20,08,00,13.10
2015,05,20,08,01,13.10
2015,05,20,08,02,13.10
2015,05,20,08,03,13.20
2015,05,20,08,04,13.20
2015,05,20,08,05,13.30
2015,05,20,08,06,13.30
2015,05,20,08,07,13.30
2015,05,20,08,08,13.30
2015,05,20,08,09,13.40
2015,05,20,08,10,13.40
2015,05,20,08,11,13.50
2015,05,20,08,12,13.50
2015,05,20,08,13,13.60
2015,05,20,08,14,13.60
2015,05,20,08,15,13.60
2015,05,20,08,16,13.70
2015,05,20,08,17,13.70
2015,05,20,08,18,13.70
2015,05,20,08,19,13.80
2015,05,20,08,20,13.90
2015,05,20,08,21,14.00
2015,05,20,08,22,14.20
2015,05,20,08,23,14.20
2015,05,20,08,24,14.30
2015,05,20,08,25,14.40
2015,05,20,08,26,14.50
2015,05,20,08,27,14.60
2015,05,20,08,28,14.70
2015,05,20,08,29,14.80
2015,05,20,08,30,14.90
2015,05,20,08,31,15.00
2015,05,20,08,32,15.10
2015,05,20,08,33,15.20
2015,05,20,08,34,15.30
2015,05,20,08,35,15.30
2015,05,20,08,36,15.30
2015,05,20,08,37,15.40
2015,05,20,08,38,15.50
2015,05,20,08,39,15.60
2015,05,20,08,40,15.60
2015,05,20,08,41,15.70
2015,05,20,08,42,15.70
2015,05,20,08,43,15.70
2015,05,20,08,44,15.70
2015,05,20,08,45,15.70
2015,05,20,08,46,15.70
2015,05,20,08,47,15.70
2015,05,20,08,48,15.70
2015,05,20,08,49,15.70
2015,05,20,08,50,15.70
2015,05,20,08,51,15.70
2015,05,20,08,52,15.80
2015,05,20,08,53,15.80
2015,05,20,08,54,15.80
2015,05,20,08,55,15.80
2015,05,20,08,56,15.90
2015,05,20,08,57,15.90
2015,05,20,08,58,15.90
2015,05,20,08,59,16.10
2015,05,20,09,00,16.10
2015,05,20,09,01,16.20
2015,05,20,09,02,16.20
2015,05,20,09,03,16.30
2015,05,20,09,04,16.30
2015,05,20,09,05,16.30
2015,05,20,09,06,16.40
2015,05,20,09,07,16.40
2015,05,20,09,08,16.50
2015,05,20,09,09,16.60
2015,05,20,09,10,16.60
2015,05,20,09,11,16.60
2015,05,20,09,12,16.70
2015,05,20,09,13,16.70
2015,05,20,09,14,16.70
2015,05,20,09,15,16.70
2015,05,20,09,16,16.80
2015,05,20,09,17,16.80
2015,05,20,09,18,16.90
2015,05,20,09,19,16.90
2015,05,20,09,20,16.90
2015,05,20,09,21,16.90
2015,05,20,09,22,16.80
2015,05,20,09,23,16.80
2015,05,20,09,24,16.80
2015,05,20,09,25,16.80
2015,05,20,09,26,16.70
2015,05,20,09,27,16.60
2015,05,20,09,28,16.60
2015,05,20,09,29,16.50
2015,05,20,09,30,16.40
2015,05,20,09,31,16.40
2015,05,20,09,32,16.40
2015,05,20,09,33,16.50
2015,05,20,09,34,16.60
2015,05,20,09,35,16.60
2015,05,20,09,36,16.70
2015,05,20,09,37,16.70
2015,05,20,09,38,16.70
2015,05,20,09,39,16.80
2015,05,20,09,40,16.80
2015,05,20,09,41,16.80
2015,05,20,09,42,16.90
2015,05,20,09,43,16.90
2015,05,20,09,44,17.00
2015,05,20,09,45,17.10
2015,05,20,09,46,17.20
2015,05,20,09,47,17.30
2015,05,20,09,48,17.40
2015,05,20,09,49,17.40
2015,05,20,09,50,17.50
2015,05,20,09,51,17.50
2015,05,20,09,52,17.60
2015,05,20,09,53,17.70
2015,05,20,09,54,17.70
2015,05,20,09,55,17.80
2015,05,20,09,56,17.90
2015,05,20,09,57,17.90
2015,05,20,09,58,18.00
2015,05,20,09,59,18.10
2015,05,20,10,00,18.10
2015,05,20,10,01,18.20
2015,05,20,10,02,18.30
2015,05,20,10,03,18.40
2015,05,20,10,04,18.40
2015,05,20,10,05,18.40
2015,05,20,10,06,18.40
2015,05,20,10,07,18.40
2015,05,20,10,08,18.40
2015,05,20,10,09,18.50
2015,05,20,10,10,18.50
2015,05,20,10,11,18.50
2015,05,20,14,53,24.40
2015,05,20,14,54,24.50
2015,05,20,14,55,24.50
2015,05,20,14,56,24.50
2015,05,20,14,57,24.40
2015,05,20,14,58,24.40
2015,05,20,14,59,24.30
2015,05,20,15,00,24.30
2015,05,20,15,01,24.40
2015,05,20,15,02,24.40
2015,05,20,15,03,24.50
2015,05,20,15,04,24.50
2015,05,20,15,05,24.50
2015,05,20,15,06,24.50
2015,05,20,15,07,24.50
2015,05,20,15,08,24.50
2015,05,20,15,09,24.40
2015,05,20,15,10,24.30
2015,05,20,15,11,24.30
2015,05,20,15,12,24.30
2015,05,20,15,13,24.30
2015,05,20,15,14,24.30
2015,05,20,15,15,24.30
2015,05,20,15,16,24.20
2015,05,20,15,17,24.10
2015,05,20,15,18,24.10
2015,05,20,15,19,24.10
2015,05,20,15,20,24.10
2015,05,20,15,21,24.20
2015,05,20,15,22,24.30
2015,05,20,15,23,24.30
2015,05,20,15,24,24.30
2015,05,20,15,25,24.30
2015,05,20,15,26,24.30
2015,05,20,15,27,24.30
2015,05,20,15,28,24.40
2015,05,20,15,29,24.50
2015,05,20,15,30,24.60
2015,05,20,15,31,24.60
2015,05,20,15,32,24.60
2015,05,20,15,33,24.60
2015,05,20,15,34,24.70
2015,05,20,15,35,24.70
2015,05,20,15,36,24.80
2015,05,20,15,37,24.80
2015,05,20,15,38,24.70
2015,05,20,15,39,24.70
2015,05,20,15,40,24.60
2015,05,20,15,41,24.70
2015,05,20,15,42,24.70
2015,05,20,15,43,24.60
2015,05,20,15,44,24.60
2015,05,20,15,45,24.60
2015,05,20,15,46,24.60
2015,05,20,15,47,24.60
2015,05,20,15,48,24.60
2015,05,20,15,49,24.60
2015,05,20,15,50,24.60
2015,05,20,15,51,24.60
2015,05,20,15,52,24.60
2015,05,20,15,53,24.60
2015,05,20,15,54,24.50
2015,05,20,15,55,24.50
2015,05,20,15,56,24.60
2015,05,20,15,57,24.60
2015,05,20,15,58,24.50
2015,05,20,15,59,24.50
2015,05,20,16,00,24.50
2015,05,20,16,01,24.50
2015,05,20,16,02,24.50
2015,05,20,16,03,24.40
2015,05,20,16,04,24.30
2015,05,20,16,05,24.30
2015,05,20,16,06,24.30
2015,05,20,16,07,24.20
2015,05,20,16,08,24.20
2015,05,20,16,09,24.20
2015,05,20,16,10,24.20
2015,05,20,16,11,24.20
2015,05,20,16,12,24.10
2015,05,20,16,13,24.10
2015,05,20,16,14,24.10
2015,05,20,16,15,24.10
2015,05,20,16,16,23.90
2015,05,20,16,17,23.90
2015,05,20,16,18,23.90
2015,05,20,16,19,23.90
2015,05,20,16,20,23.90
2015,05,20,16,21,23.80
2015,05,20,16,22,23.80
2015,05,20,16,23,23.80
2015,05,20,16,24,23.80
2015,05,20,16,25,23.70
2015,05,20,16,26,23.70
2015,05,20,16,27,23.70
2015,05,20,16,28,23.70
2015,05,20,16,29,23.80
2015,05,20,16,30,23.80
2015,05,20,16,31,23.80
2015,05,20,16,32,23.80
2015,05,20,16,33,23.80
2015,05,20,16,34,23.70
2015,05,20,16,35,23.70
2015,05,20,16,36,23.70
2015,05,20,16,37,23.60
2015,05,20,16,38,23.50
2015,05,20,16,39,23.40
2015,05,20,16,40,23.30
2015,05,20,16,41,23.30
2015,05,20,16,42,23.30
2015,05,20,16,43,23.20
2015,05,20,16,44,23.10
2015,05,20,16,45,23.10
2015,05,20,16,46,23.00
2015,05,20,16,47,22.90
2015,05,20,16,48,22.90
2015,05,20,16,49,22.90
2015,05,20,16,50,22.80
2015,05,20,16,51,22.70
2015,05,20,16,52,22.60
2015,05,20,16,53,22.60
2015,05,20,16,54,22.50
2015,05,20,16,55,22.50
2015,05,20,16,56,22.50
2015,05,20,16,57,22.50
2015,05,20,16,58,22.50
2015,05,20,16,59,22.50
2015,05,20,17,00,22.50
2015,05,20,17,01,22.50
2015,05,20,17,02,22.50
2015,05,20,17,03,22.40
2015,05,20,17,04,22.40
2015,05,20,17,05,22.40
2015,05,20,17,06,22.30
2015,05,20,17,07,22.30
2015,05,20,17,08,22.30
2015,05,20,17,09,22.30
2015,05,20,17,10,22.30
2015,05,20,17,11,22.30
2015,05,20,17,12,22.20
2015,05,20,17,13,22.30
2015,05,20,17,14,22.20
2015,05,20,17,15,22.30
2015,05,20,17,16,22.30
2015,05,20,17,17,22.30
2015,05,20,17,18,22.30
2015,05,20,17,19,22.30
2015,05,20,17,20,22.30
2015,05,20,17,21,22.30
2015,05,20,17,22,22.30
2015,05,20,17,23,22.30
2015,05,20,17,24,22.30
2015,05,20,17,25,22.30
2015,05,20,17,26,22.30
2015,05,20,17,27,22.30
2015,05,20,17,28,22.30
2015,05,20,17,29,22.30
2015,05,20,17,30,22.30
2015,05,20,17,31,22.30
2015,05,20,17,32,22.30
2015,05,20,17,33,22.30
2015,05,20,17,34,22.30
2015,05,20,17,35,22.20
2015,05,20,17,36,22.20
2015,05,20,17,37,22.20
2015,05,20,17,38,22.10
2015,05,20,17,39,22.10
2015,05,20,17,40,22.10
2015,05,20,17,41,22.10
2015,05,20,17,42,22.00
2015,05,20,17,43,22.00
2015,05,20,17,44,22.00
2015,05,20,17,45,22.00
2015,05,20,17,46,22.00
2015,05,20,17,47,22.00
2015,05,20,17,48,21.90
2015,05,20,17,49,22.00
2015,05,20,17,50,22.00
2015,05,20,17,51,22.00
2015,05,20,17,52,22.00
2015,05,20,17,53,22.00
2015,05,20,17,54,22.00
2015,05,20,17,55,22.00
2015,05,20,17,56,22.10
2015,05,20,17,57,22.10
2015,05,20,17,58,22.10
2015,05,20,17,59,22.10
2015,05,20,18,00,22.10
2015,05,20,18,01,22.10
2015,05,20,18,02,22.10
2015,05,20,18,03,22.10
2015,05,20,18,04,22.00
2015,05,20,18,05,22.00
2015,05,20,18,06,21.90
2015,05,20,18,07,21.90
2015,05,20,18,08,21.90
2015,05,20,18,09,21.80
2015,05,20,18,10,21.80
2015,05,20,18,11,21.80
2015,05,20,18,12,21.80
2015,05,20,18,13,21.70
2015,05,20,18,14,21.70
2015,05,20,18,15,21.70
2015,05,20,18,16,21.60
2015,05,20,18,17,21.60
2015,05,20,18,18,21.60
2015,05,20,18,19,21.60
2015,05,20,18,20,21.60
2015,05,20,18,21,21.60
2015,05,20,18,22,21.60
2015,05,20,18,23,21.50
2015,05,20,18,24,21.40
2015,05,20,18,25,21.40
2015,05,20,18,26,21.40
2015,05,20,18,27,21.40
2015,05,20,18,28,21.40
2015,05,20,18,29,21.40
2015,05,20,18,30,21.40
2015,05,20,18,31,21.40
2015,05,20,18,32,21.40
2015,05,20,18,33,21.40
2015,05,20,18,34,21.30
2015,05,20,18,35,21.30
2015,05,20,18,36,21.30
2015,05,20,18,37,21.30
2015,05,20,18,38,21.30
2015,05,20,18,39,21.30
2015,05,20,18,40,21.30
2015,05,20,18,41,21.30
2015,05,20,18,42,21.30
2015,05,20,18,43,21.30
2015,05,20,18,44,21.20
2015,05,20,18,45,21.20
2015,05,20,18,46,21.20
2015,05,20,18,47,21.10
2015,05,20,18,48,21.10
2015,05,20,18,49,21.10
2015,05,20,18,50,21.10
2015,05,20,18,51,21.10
2015,05,20,18,52,21.00
2015,05,20,18,53,21.00
2015,05,20,18,54,21.00
2015,05,20,18,55,21.00
2015,05,20,18,56,20.90
2015,05,20,18,57,20.90
2015,05,20,18,58,20.90
2015,05,20,18,59,20.90
2015,05,20,19,00,20.80
2015,05,20,19,01,20.80
2015,05,20,19,02,20.80
2015,05,20,19,03,20.70
2015,05,20,19,04,20.70
2015,05,20,19,05,20.70
2015,05,20,19,06,20.70
2015,05,20,19,07,20.60
2015,05,20,19,08,20.60
2015,05,20,19,09,20.60
2015,05,20,19,10,20.50
2015,05,20,19,11,20.50
2015,05,20,19,12,20.50
2015,05,20,19,13,20.50
2015,05,20,19,14,20.40
2015,05,20,19,15,20.40
2015,05,20,19,16,20.30
2015,05,20,19,17,20.30
2015,05,20,19,18,20.20
2015,05,20,19,19,20.20
2015,05,20,19,20,20.20
2015,05,20,19,21,20.20
2015,05,20,19,22,20.10
2015,05,20,19,23,20.10
2015,05,20,19,24,20.00
2015,05,20,19,25,19.90
2015,05,20,19,26,19.90
2015,05,20,19,27,19.90
2015,05,20,19,28,19.90
2015,05,20,19,29,19.90
2015,05,20,19,30,19.80
2015,05,20,19,31,19.80
2015,05,20,19,32,19.80
2015,05,20,19,33,19.80
2015,05,20,19,34,19.70
2015,05,20,19,35,19.70
2015,05,20,19,36,19.70
2015,05,20,19,37,19.70
2015,05,20,19,38,19.60
2015,05,20,19,39,19.60
2015,05,20,19,40,19.60
2015,05,20,19,41,19.60
2015,05,20,19,42,19.50
2015,05,20,19,43,19.50
2015,05,20,19,44,19.50
2015,05,20,19,45,19.50
2015,05,20,19,46,19.40
2015,05,20,19,47,19.40
2015,05,20,19,48,19.40
2015,05,20,19,49,19.40
2015,05,20,19,50,19.30
2015,05,20,19,51,19.30
2015,05,20,19,52,19.30
2015,05,20,19,53,19.20
2015,05,20,19,54,19.20
2015,05,20,19,55,19.20
2015,05,20,19,56,19.10
2015,05,20,19,57,19.10
2015,05,20,19,58,19.10
2015,05,20,19,59,19.10
2015,05,20,20,00,19.00
2015,05,20,20,01,18.90
2015,05,20,20,02,18.90
2015,05,20,20,03,18.90
2015,05,20,20,04,18.90
2015,05,20,20,05,18.80
2015,05,20,20,06,18.80
2015,05,20,20,07,18.70
2015,05,20,20,08,18.70
2015,05,20,20,09,18.60
2015,05,20,20,10,18.60
2015,05,20,20,11,18.60
2015,05,20,20,12,18.50
2015,05,20,20,13,18.50
2015,05,20,20,14,18.50
2015,05,20,20,15,18.40
2015,05,20,20,16,18.40
2015,05,20,20,17,18.40
2015,05,20,20,18,18.30
2015,05,20,20,19,18.30
2015,05,20,20,20,18.30
2015,05,20,20,21,18.20
2015,05,20,20,22,18.20
2015,05,20,20,23,18.20
2015,05,20,20,24,18.20
2015,05,20,20,25,18.20
2015,05,20,20,26,18.10
2015,05,20,20,27,18.10
2015,05,20,20,28,18.10
2015,05,20,20,29,18.00
2015,05,20,20,30,17.90
2015,05,20,20,31,17.90
2015,05,20,20,32,17.90
2015,05,20,20,33,17.90
2015,05,20,20,34,17.80
2015,05,20,20,35,17.80
2015,05,20,20,36,17.70
2015,05,20,20,37,17.70
2015,05,20,20,38,17.70
2015,05,20,20,39,17.60
2015,05,20,20,40,17.50
2015,05,20,20,41,17.50
2015,05,20,20,42,17.50
2015,05,20,20,43,17.40
2015,05,20,20,44,17.40
2015,05,20,20,45,17.40
2015,05,20,20,46,17.30
2015,05,20,20,47,17.30
2015,05,20,20,48,17.30
2015,05,20,20,49,17.30
2015,05,20,20,50,17.20
2015,05,20,20,51,17.20
2015,05,20,20,52,17.20
2015,05,20,20,53,17.10
2015,05,20,20,54,17.10
2015,05,20,20,55,17.10
2015,05,20,20,56,17.00
2015,05,20,20,57,17.00
2015,05,20,20,58,16.90
2015,05,20,20,59,16.90
2015,05,20,21,00,16.90
2015,05,20,21,01,16.80
2015,05,20,21,02,16.80
2015,05,20,21,03,16.70
2015,05,20,21,04,16.70
2015,05,20,21,05,16.70
2015,05,20,21,06,16.70
2015,05,20,21,07,16.60
2015,05,20,21,08,16.60
2015,05,20,21,09,16.50
2015,05,20,21,10,16.40
2015,05,20,21,11,16.40
2015,05,20,21,12,16.40
2015,05,20,21,13,16.40
2015,05,20,21,14,16.30
2015,05,20,21,15,16.30
2015,05,20,21,16,16.30
2015,05,20,21,17,16.20
2015,05,20,21,18,16.20
2015,05,20,21,19,16.20
2015,05,20,21,20,16.20
2015,05,20,21,21,16.10
2015,05,20,21,22,16.10
2015,05,20,21,23,16.10
2015,05,20,21,24,16.10
2015,05,20,21,25,16.10
2015,05,20,21,26,16.10
2015,05,20,21,27,15.90
2015,05,20,21,28,15.90
2015,05,20,21,29,15.90
2015,05,20,21,30,15.90
2015,05,20,21,31,15.80
2015,05,20,21,32,15.80
2015,05,20,21,33,15.80
2015,05,20,21,34,15.80
2015,05,20,21,35,15.80
2015,05,20,21,36,15.80
2015,05,20,21,37,15.70
2015,05,20,21,38,15.70
2015,05,20,21,39,15.70
2015,05,20,21,40,15.60
2015,05,20,21,41,15.60
2015,05,20,21,42,15.60
2015,05,20,21,43,15.50
2015,05,20,21,44,15.50
2015,05,20,21,45,15.50
2015,05,20,21,46,15.40
2015,05,20,21,47,15.40
2015,05,20,21,48,15.40
2015,05,20,21,49,15.40
2015,05,20,21,50,15.30
2015,05,20,21,51,15.30
2015,05,20,21,52,15.30
2015,05,20,21,53,15.30
2015,05,20,21,54,15.30
2015,05,20,21,55,15.30
2015,05,20,21,56,15.20
2015,05,20,21,57,15.20
2015,05,20,21,58,15.20
2015,05,20,21,59,15.10
2015,05,20,22,00,15.10